sat.trackr.live / text

‹ back to catalog

STARLINK-3218

NORAD 49725 · 2021-115B

PAYLOAD ACTIVE UNKNOWN

§ Identity

Operator
Country
US
Launch date
2021-12-02
Launch site
AFETR
Launch vehicle
Mass (kg)
RCS (m²)

Purposes: comms

External: N2YO · Heavens-Above · Gunter

§ Orbital elements

Epoch: 2026-09-19T19:30:59.588352Z

Period
93.85 min
Inclination
53.1619°
Eccentricity
0.0001215
Mean motion
15.34387509 rev/d
Perigee alt
461.9 km
Apogee alt
463.6 km
Semi-major
6,840.9 km
B*
5.2736e-5
RAAN
345.0676°
Arg perigee
80.5873°
Mean anomaly
279.5267°
Rev number
26,501

§ Raw data

STARLINK-32181 49725U 21115B   26262.81318968  .00001405  00000+0  52736-4 0  99952 49725  53.1619 345.0676 0001215  80.5873 279.5267 15.34387509265012

JSON: /api/v1/satellites/49725 · /tle

For live sub-satellite position, see the globe view (requires WebGL).

§ Visibility from observer

Set your observer location to see the next 7 days of passes ≥ 10°. The values pass through the URL so the page stays shareable.

No JS? Fill the form by hand. The geolocation button needs JavaScript.